Regional Weather Roundup
Issued by NWS

Home | Current Version | Previous Version | Graphics & Text | Print | Product List | Glossary On
Versions: 1 2 3 4 5 6 7 8 9 10 11 12 13 14 15 16 17 18 19 20 21 22 23 24 25 26 27 28 29 30 31 32 33 34 35 36 37 38 39 40 41 42 43 44 45 46 47 48 49 50
000
ASUS45 KCYS 220710
RWRWY

WYOMING REGIONAL WEATHER ROUNDUP
NATIONAL WEATHER SERVICE CHEYENNE WY
100 AM MDT SAT APR 22 2017

NOTE:  "FAIR" INDICATES FEW OR NO CLOUDS BELOW 12,000 FEET
WITH NO SIGNIFICANT WEATHER AND/OR OBSTRUCTIONS TO VISIBILITY.

WYZ001-220800-
YELLOWSTONE NATIONAL PARK

CITY           SKY/WX    TMP DP  RH WIND       PRES   REMARKS
LK YELLOWSTONE   N/A     21  19  92 CALM      30.27S
W YELLOWSTONE  NOT AVBL

$$
WYZ002>013-054>058-071-098>099-220800-
NORTHERN WYOMING

CITY           SKY/WX    TMP DP  RH WIND       PRES   REMARKS
JACKSON        FAIR      30  28  93 N7        30.26R WCI  23
CODY           MIX PCPN  37  34  89 N8        30.26R WCI  31
GREYBULL       CLOUDY    41  37  86 NW14      30.20R
WORLAND        LGT RAIN  40  39  97 N6        30.23R
SHERIDAN       CLOUDY    41  38  89 W6        30.25R
BUFFALO        LGT RAIN  39  35  86 NW10      30.24R WCI  32
GILLETTE       CLOUDY    42  42 100 N7        30.22R
HULETT         PTSUNNY   41  37  87 S5        30.23R
NEWCASTLE      CLOUDY    43  37  81 S8        30.24R

$$
WYZ014>020-022>026-101>103-220800-
CENTRAL WYOMING

CITY           SKY/WX    TMP DP  RH WIND       PRES   REMARKS
BIG PINEY      FAIR      28  21  75 N10       30.22S WCI  19
PINEDALE       FAIR      27  23  86 N3        30.23R
DUBOIS         CLOUDY    32  21  64 W14       30.21R WCI  22
LANDER         CLOUDY    36  35  96 CALM      30.21S
RIVERTON       CLOUDY    35  35 100 SW7       30.23R WCI  29
CASPER         CLOUDY    37  35  92 W9        30.17R WCI  30
DOUGLAS        LGT RAIN  39  37  92 SE12      30.20R WCI  32

$$
WYZ021-027>030-104>119-220800-
SOUTHERN WYOMING

CITY           SKY/WX    TMP DP  RH WIND       PRES   REMARKS
EVANSTON       FAIR      30  23  75 CALM      30.26R
KEMMERER         N/A     28  25  86 W5        30.26R WCI  23
FORT BRIDGER   FAIR      30  25  79 W8        30.28R WCI  23
ROCK SPRINGS   CLOUDY    34  24  67 CALM      30.24R
DIXON            N/A     27  23  84 CALM      30.24R
RAWLINS        FAIR      29  26  89 NW6       30.20R WCI  23
SARATOGA       PTSUNNY   30  30 100 S6        30.21R WCI  24
LARAMIE        CLOUDY    29  27  92 SE8       30.19R WCI  21
CHEYENNE       LGT SNOW  34  33  96 S8        30.22R FOG     WCI  27
TORRINGTON     CLOUDY    42  38  85 SW13      30.22R
PINE BLUFFS    CLOUDY    36  36 100 SW5       30.24S WCI  32

$$



USA.gov is the U.S. government's official web portal to all federal, state and local government web resources and services.